This is the latest recevied weather packets stored in our database for station/object 9M8ZAL-13. If no packets are shown the sender has not sent any weather packets the latest 10 day(s).
| Time | Temp. | Humidity | Pressure | Rain* | Wind** | Luminosity | Snow |
|---|---|---|---|---|---|---|---|
| 1777530199 | 31.11° C | - | 1007.4 hPa | - | - | 1008 W/m² | - |
| 1777529599 | 31.11° C | - | 1007.6 hPa | - | - | 1007 W/m² | - |
| 1777528998 | 30.56° C | - | 1007.5 hPa | - | - | 1006 W/m² | - |
| 1777528399 | 30° C | - | 1007.7 hPa | - | - | 1006 W/m² | - |
| 1777527799 | 30.56° C | - | 1007.8 hPa | - | - | 1005 W/m² | - |
| 1777527199 | 30° C | - | 1007.9 hPa | - | - | 1006 W/m² | - |
| 1777526598 | 30° C | - | 1008.1 hPa | - | - | 1006 W/m² | - |
| 1777525999 | 29.44° C | - | 1008.5 hPa | - | - | 1006 W/m² | - |
| 1777525399 | 28.89° C | - | 1008.5 hPa | - | - | 1005 W/m² | - |
| 1777524798 | 28.89° C | - | 1008.3 hPa | - | - | 1004 W/m² | - |
| 1777524198 | 28.89° C | - | 1008.5 hPa | - | - | 1003 W/m² | - |
| 1777523598 | 29.44° C | - | 1008.9 hPa | - | - | 1002 W/m² | - |
| 1777522998 | 30.56° C | - | 1009.1 hPa | - | - | 1003 W/m² | - |
| 1777521798 | 32.22° C | - | 1008.9 hPa | - | - | 1005 W/m² | - |
| 1777521198 | 32.22° C | - | 1009.2 hPa | - | - | 1005 W/m² | - |
| 1777520598 | 32.78° C | - | 1009.5 hPa | - | - | 1006 W/m² | - |
| 1777519998 | 31.67° C | - | 1009.4 hPa | - | - | 1007 W/m² | - |
| 1777519398 | 31.67° C | - | 1009.4 hPa | - | - | 1006 W/m² | - |
| 1777518798 | 31.67° C | - | 1009.3 hPa | - | - | 1007 W/m² | - |
| 1777518198 | 31.11° C | - | 1009.3 hPa | - | - | 1007 W/m² | - |
| 1777517598 | 30.56° C | - | 1009.3 hPa | - | - | 1006 W/m² | - |
| 1777510680 | 28.89° C | - | 1009.7 hPa | - | - | 1003 W/m² | - |
| 1777510080 | 28.89° C | - | 1009.5 hPa | - | - | 1002 W/m² | - |
| 1777509480 | 28.89° C | - | 1009.6 hPa | - | - | 1002 W/m² | - |
| 1777508880 | 28.89° C | - | 1009.6 hPa | - | - | 1002 W/m² | - |
* Rain since midnight (hover to see other rain measurements)
** Current wind speed in m/s (hover to see current wind gust speed)